This is the latest recevied weather packets stored in our database for station/object EA5DFV. If no packets are shown the sender has not sent any weather packets the latest 10 day(s).
| Time | Temp. | Humidity | Pressure | Rain* | Wind** | Luminosity | Snow |
|---|---|---|---|---|---|---|---|
| 1777196022 | 20° C | 72% | 1019 hPa | 0 mm | - | 779 W/m² | - |
| 1777195713 | 20° C | 72% | 1019.1 hPa | 0 mm | - | 770 W/m² | - |
| 1777195409 | 19.44° C | 72% | 1019.1 hPa | 0 mm | - | 526 W/m² | - |
| 1777195120 | 19.44° C | 73% | 1019.1 hPa | 0 mm | - | 515 W/m² | - |
| 1777194810 | 19.44° C | 73% | 1019.1 hPa | 0 mm | - | 670 W/m² | - |
| 1777194504 | 18.89° C | 73% | 1019 hPa | 0 mm | - | 568 W/m² | - |
| 1777194201 | 18.89° C | 73% | 1018.9 hPa | 0 mm | - | 373 W/m² | - |
| 1777193915 | 19.44° C | 73% | 1018.9 hPa | 0 mm | - | 169 W/m² | - |
| 1777193609 | 19.44° C | 74% | 1018.8 hPa | 0 mm | - | 204 W/m² | - |
| 1777193302 | 18.89° C | 74% | 1018.7 hPa | 0 mm | - | 552 W/m² | - |
| 1777193015 | 18.89° C | 76% | 1018.7 hPa | 0 mm | - | 592 W/m² | - |
| 1777192709 | 18.33° C | 76% | 1018.7 hPa | 0 mm | - | 610 W/m² | - |
| 1777192420 | 17.78° C | 77% | 1018.6 hPa | 0 mm | - | 591 W/m² | - |
| 1777192110 | 17.22° C | 77% | 1018.6 hPa | 0 mm | - | 573 W/m² | - |
| 1777191805 | 17.22° C | 78% | 1018.5 hPa | 0 mm | - | 561 W/m² | - |
| 1777191515 | 16.67° C | 79% | 1018.5 hPa | 0 mm | - | 545 W/m² | - |
| 1777191206 | 16.67° C | 79% | 1018.4 hPa | 0 mm | - | 288 W/m² | - |
| 1777190916 | 16.67° C | 80% | 1018.4 hPa | 0 mm | - | 181 W/m² | - |
| 1777190609 | 16.11° C | 80% | 1018.3 hPa | 0 mm | - | 83 W/m² | - |
| 1777190302 | 16.11° C | 81% | 1018.4 hPa | 0 mm | - | 209 W/m² | - |
| 1777190013 | 16.11° C | 82% | 1018.4 hPa | 0 mm | - | 120 W/m² | - |
| 1777189707 | 16.11° C | 82% | 1018.3 hPa | 0 mm | - | 91 W/m² | - |
| 1777189401 | 16.11° C | 82% | 1018.3 hPa | 0 mm | - | 158 W/m² | - |
| 1777189115 | 16.11° C | 83% | 1018.2 hPa | 0 mm | - | 62 W/m² | - |
| 1777188808 | 15.56° C | 83% | 1018.3 hPa | 0 mm | - | 123 W/m² | - |
* Rain latest hour (hover to see other rain measurements)
** Current wind speed in m/s (hover to see current wind gust speed)